Regional Weather Roundup
Issued by NWS Portland, ME

Home | Current Version | Previous Version | Text Only | Print | Product List | Glossary On
Versions: 1 2 3 4 5 6 7 8 9 10 11 12 13 14 15 16 17 18 19 20 21 22 23 24 25 26 27 28 29 30 31 32 33 34 35 36 37 38 39 40 41 42 43 44 45 46 47 48 49 50
663
ASUS41 KGYX 252110
RWRGYX
WEATHER ROUNDUP FOR MAINE AND NEW HAMPSHIRE
NATIONAL WEATHER SERVICE GRAY ME
500 PM EDT WED MAY 25 2016

MEZ002-005-006-010-012-015-018-020-021-024-026-027-029-252200-
MAINE

CITY           SKY/WX    TMP DP  RH WIND       PRES   REMARKS
PORTLAND       PTSUNNY   61  54  77 SW6       29.95R
SANFORD        MOSUNNY   77  57  50 SE5       29.92S
BAR HARBOR     MOSUNNY   57  51  80 S14       29.94R
WISCASSET      MOSUNNY   62  53  72 S6        29.94S
ROCKLAND       CLOUDY    54  51  90 S8        29.94S
FRYEBURG       CLOUDY    83  51  33 CALM      29.91S
LEWISTONAUBURN PTSUNNY   64  55  72 S10       29.93R
AUGUSTA        MOSUNNY   68  57  68 VRB7      29.91R
WATERVILLE     CLOUDY    72  60  66 S6        29.88R
BANGOR         PTSUNNY   70  55  59 S14       29.89R
GREENVILLE       N/A     68  56  65 CALM      29.88S
MILLINOCKET    CLOUDY    75  52  44 VRB7      29.84S
HOULTON        SUNNY     77  52  41 S12       29.80F
PRESQUE ISLE   MOSUNNY   79  55  43 S12       29.78F
FRENCHVILLE    CLOUDY    74  53  48 NW6       29.78S
CARIBOU        PTSUNNY   77  54  44 S7        29.77F
$$

NHZ002-005-008-009-011-012-014-252200-
NEW HAMPSHIRE

CITY           SKY/WX    TMP DP  RH WIND       PRES   REMARKS
PORTSMOUTH     PTSUNNY   78  60  53 SE7       29.89F
ROCHESTER      CLOUDY    85  49  28 CALM      29.90F
NASHUA         SUNNY     87  47  24 W14G21    29.93S
MANCHESTER     CLOUDY    87  44  22 W7G16     29.92S
CONCORD        CLOUDY    87  47  24 W10       29.92S
LACONIA        MOSUNNY   84  49  29 W7G16     29.93F
PLYMOUTH       PTSUNNY   82  45  27 W7        29.91F
BERLIN         CLOUDY    74  48  39 NW6       29.95R
WHITEFIELD     PTSUNNY   79  49  34 W3        29.94F
JAFFREY        MOSUNNY   84  42  22 W9        29.99S
KEENE          CLOUDY    82  45  26 SW5       29.97S
LEBANON        PTSUNNY   83  49  30 W10       29.93S
MT WASHINGTON  PTSUNNY   52  43  71 W25         N/A
$$

VTZ005-007-008-252200-
VERMONT

CITY           SKY/WX    TMP DP  RH WIND       PRES   REMARKS
ST JOHNSBURY     N/A     79  49  34 MISG      29.92R
MONTPELIER     CLOUDY    78  48  34 W10G16    29.99R
BURLINGTON     PTSUNNY   82  49  31 N16       29.93R
$$

MAZ007-012-024-CTZ003-RIZ002-NYZ038-NYZ072-252200-
SOUTHERN NEW ENGLAND AND NY

CITY           SKY/WX    TMP DP  RH WIND       PRES   REMARKS
BOSTON         MOSUNNY   88  45  22 W14G22    29.93S
WORCESTER      SUNNY     83  41  22 NW16G30   30.00S
NANTUCKET      SUNNY     63  54  72 SW13      30.01S
PROVIDENCE     MOSUNNY   89  42  19 W14G23    29.97R
HARTFORD       MOSUNNY   88  44  21 W10       29.97S
ALBANY         CLOUDY    81  53  37 W12       30.00R
NEW YORK CITY  PTSUNNY   90  48  23 W12G21    30.01S
$$

ANZ081-ANZ082-ANZ150-NHZ014-MEZ023>029-252200-
COASTAL MARINE OBSERVATIONS

STATION/POSITION TIME  TEMP    WIND        PRES    WAVE
                       AIR SEA DIR/SP/G            HT/PER
                 (UTC) (F)     (DEG/KT/KT) (MB)    (FT/S)
MOUNT DESERT ROC 2100   49     180/ 10/ 11 1014.5F
MATINICUS ROCK   2100   49     190/ 14/ 15 1013.8F
ISLE OF SHOALS   2100   60     160/ 23/ 23 1012.6F
JEFFREYS LEDGE   2008      52                N/A     3/ 8
CASHES LEDGE BUO 2050   51 52  180/ 10/ 12 1014.1F   3/ 8
GEORGES BANK BUO 2050   50 50              1017.0R   5/ 7
$$

.............KEY..............
   WCI - WIND CHILL
   TC  - TEMPERATURE IN CELSIUS
   VSB - VISIBILITY IN MILES
   HX  - HEAT INDEX
   FAIR- INDICATES FEW OR NO CLOUDS BELOW 12,000 FT, WITH NO
         SIGNIFICANT WEATHER AND/OR OBSTRUCTIONS TO VISIBILITY.






USA.gov is the U.S. government's official web portal to all federal, state and local government web resources and services.